Location: Unspecified
(43.4680°N, 87.1740°E)
Time: 21:41:25
(UTC+00:00)

Cosmos 2366 rocket - Pass Details

Date: 17 April 2021
Orbit: 954 x 998 km, 82.9° (Epoch: 11 May)

Event Time Altitude Azimuth Distance (km) Brightness Sun altitude
Rises 20:21:42 0° 348° (NNW) 3,648 7.6 -28.1°
Reaches altitude 10° 20:24:14 10° 345° (NNW) 2,695 6.7 -27.8°
Enters shadow 20:30:04 60° 277° (W) 1,086 4.0 -27.2°
